This is the latest recevied weather packets stored in our database for station/object KE5OYL. If no packets are shown the sender has not sent any weather packets the latest 10 day(s).
| Time | Temp. | Humidity | Pressure | Rain* | Wind** | Luminosity | Snow |
|---|---|---|---|---|---|---|---|
| 1777762100 | 25.56° C | 28% | 1019.5 hPa | 0 mm | - | 289 W/m² | - |
| 1777761796 | 25° C | 28% | 1019.4 hPa | 0 mm | - | 308 W/m² | - |
| 1777761494 | 25° C | 29% | 1019.5 hPa | 0 mm | - | 325 W/m² | - |
| 1777761192 | 25° C | 28% | 1019.5 hPa | 0 mm | - | 344 W/m² | - |
| 1777760889 | 25° C | 29% | 1019.5 hPa | 0 mm | - | 362 W/m² | - |
| 1777760586 | 25.56° C | 30% | 1019.5 hPa | 0 mm | - | 379 W/m² | - |
| 1777760281 | 25° C | 29% | 1019.4 hPa | 0 mm | - | 394 W/m² | - |
| 1777759972 | 24.44° C | 30% | 1019.6 hPa | 0 mm | - | 414 W/m² | - |
| 1777759669 | 25° C | 30% | 1019.6 hPa | 0 mm | - | 428 W/m² | - |
| 1777759365 | 25.56° C | 28% | 1019.5 hPa | 0 mm | - | 447 W/m² | - |
| 1777759062 | 25.56° C | 28% | 1019.5 hPa | 0 mm | - | 467 W/m² | - |
| 1777758759 | 24.44° C | 28% | 1019.7 hPa | 0 mm | - | 482 W/m² | - |
| 1777758457 | 24.44° C | 29% | 1019.9 hPa | 0 mm | - | 494 W/m² | - |
| 1777758153 | 24.44° C | 29% | 1019.9 hPa | 0 mm | - | 514 W/m² | - |
| 1777757851 | 23.89° C | 29% | 1020 hPa | 0 mm | - | 525 W/m² | - |
| 1777757548 | 25° C | 29% | 1019.8 hPa | 0 mm | - | 543 W/m² | - |
| 1777757247 | 25° C | 29% | 1020 hPa | 0 mm | - | 558 W/m² | - |
| 1777756944 | 25° C | 30% | 1020 hPa | 0 mm | - | 570 W/m² | - |
| 1777756640 | 25° C | 30% | 1020 hPa | 0 mm | - | 582 W/m² | - |
| 1777756337 | 25° C | 30% | 1020 hPa | 0 mm | - | 597 W/m² | - |
| 1777756034 | 23.89° C | 32% | 1020.1 hPa | 0 mm | - | 613 W/m² | - |
| 1777755731 | 25° C | 30% | 1020.4 hPa | 0 mm | - | 624 W/m² | - |
| 1777755429 | 24.44° C | 30% | 1020.2 hPa | 0 mm | - | 634 W/m² | - |
| 1777755125 | 23.89° C | 30% | 1020.4 hPa | 0 mm | - | 650 W/m² | - |
| 1777754822 | 25° C | 29% | 1020.7 hPa | 0 mm | - | 661 W/m² | - |
* Rain latest hour (hover to see other rain measurements)
** Current wind speed in m/s (hover to see current wind gust speed)